Chamberlain, SD

3:59 PM CST on February 14, 2016 (GMT -0600)
Chamberlain

Weather History for K9V9 - January, 2013

Change the Weather History Date:

Thursday, January 10, 2013

  Actual Average Record
Temperature  
Mean Temperature 38 °F -  
Max Temperature 41 °F 26 °F 57 °F (2004)
Min Temperature 35 °F 7 °F -17 °F (1997)
Degree Days  
Heating Degree Days 27    
Moisture  
Dew Point 29 °F    
Average Humidity 70    
Maximum Humidity 92    
Minimum Humidity 55    
Precipitation  
Precipitation 0.01 in - - ()
Sea Level Pressure  
Sea Level Pressure 29.81 in    
Wind  
Wind Speed 15 mph (SSE)    
Max Wind Speed 20 mph    
Max Gust Speed 22 mph    
Averages and records for this station are not official NWS values.
T = Trace of Precipitation, MM = Missing Value Source: NWS Daily Summary

Daily Weather History Graph

Daily Weather History Graph

Search for Another Location

Airport or City:

Trip Planner

Search our weather history database for the weather conditions in past years. The results will help you decide how hot, cold, wet, or windy it might be!

Date:

Astronomy

Jan. 10, 2013 Rise Set
Actual Time 8:10 AM CST 5:20 PM CST
Civil Twilight 7:37 AM CST 5:52 PM CST
Nautical Twilight 7:02 AM CST 6:28 PM CST
Astronomical Twilight 6:27 AM CST 7:02 PM CST
Moon 6:51 AM CST (1/10) 4:30 PM CST (1/10)
Length of Visible Light 10h 14m
Length of Day
9h 10m
Waning Crescent, 2% of the Moon is Illuminated
Jan 10
Waning Crescent
Jan 11
New
Jan 18
First Quarter
Jan 26
Full
Feb 3
Last Quarter

Hourly Weather History & Observations

Time (CST) Temp. Windchill Dew Point Humidity Pressure Visibility Wind Dir Wind Speed Gust Speed Precip Events Conditions
12:52 AM 41.0 °F 31.9 °F 27.0 °F 57% 30.06 in - South 19.6 mph - N/A   Unknown
1:52 AM 41.0 °F 33.1 °F 27.0 °F 57% 30.06 in - South 15.0 mph 21.9 mph N/A   Unknown
2:52 AM 39.9 °F 31.8 °F 28.0 °F 63% 30.06 in - South 15.0 mph - N/A   Unknown
3:52 AM 41.0 °F 33.1 °F 27.0 °F 57% 30.04 in - South 15.0 mph - N/A   Unknown
4:52 AM 41.0 °F 35.2 °F 26.1 °F 55% 30.02 in - South 9.2 mph - N/A   Unknown
5:52 AM 39.9 °F 30.5 °F 25.0 °F 55% 29.99 in - South 19.6 mph - N/A   Unknown
6:52 AM 39.0 °F 30.6 °F 25.0 °F 57% 30.00 in - SSE 15.0 mph - N/A   Unknown
7:52 AM 37.9 °F 32.1 °F 24.1 °F 57% 30.00 in - South 8.1 mph - N/A   Unknown
8:52 AM 37.0 °F 27.7 °F 23.0 °F 57% 29.98 in - South 16.1 mph - N/A   Unknown
9:52 AM 35.1 °F 31.0 °F 24.1 °F 64% 29.95 in - SSE 4.6 mph - N/A   Unknown
10:52 AM 37.9 °F 29.6 °F 24.1 °F 57% 29.88 in - SE 13.8 mph - N/A   Unknown
11:52 AM 41.0 °F 33.5 °F 26.1 °F 55% 29.85 in - SSE 13.8 mph - N/A   Unknown
1:52 PM 39.9 °F 30.8 °F 28.0 °F 63% 29.72 in - SE 18.4 mph - N/A   Unknown
2:52 PM 37.9 °F 28.9 °F 30.0 °F 73% 29.72 in - SE 16.1 mph - N/A   Unknown
3:52 PM 37.0 °F 28.1 °F 32.0 °F 82% 29.70 in - SE 15.0 mph - N/A   Unknown
4:52 PM 36.0 °F 26.7 °F 33.1 °F 89% 29.65 in - SE 15.0 mph - N/A   Unknown
5:52 PM 36.0 °F 27.5 °F 33.1 °F 89% 29.62 in - SE 12.7 mph - N/A   Unknown
6:52 PM 36.0 °F 25.6 °F 33.1 °F 89% 29.60 in - SSE 18.4 mph - 0.01 in   Unknown
7:52 PM 35.1 °F 25.2 °F 33.1 °F 92% 29.59 in - SSE 16.1 mph - N/A   Unknown
8:52 PM 37.0 °F 26.7 °F 33.1 °F 86% 29.53 in - South 19.6 mph - N/A   Unknown
9:52 PM 37.9 °F 29.2 °F 33.1 °F 83% 29.52 in - South 15.0 mph - N/A   Unknown
10:52 PM 37.0 °F 28.5 °F 33.1 °F 86% 29.52 in - South 13.8 mph - N/A   Unknown
11:52 PM 37.0 °F 29.3 °F 33.1 °F 86% 29.51 in - SSW 11.5 mph - N/A   Unknown